Location: Gymnasium_Grossenhain
(51.3000°N, 13.5950°E)
Time: 14:49:30
(UTC+02:00)

ACS3 Solar Sail - Visible Passes

Search period start: 13 October 2024 00:00
Search period end: 23 October 2024 00:00
Orbit: 960 x 1033 km, 97.5° (Epoch: 12 October)

Date Brightness Start Highest point End Pass type
(mag) Time Alt. Az. Time Alt. Az. Time Alt. Az.
13 Oct 2.8 19:17:10 10° ESE 19:22:15 27° ENE 19:27:20 10° N visible
13 Oct 2.0 21:02:17 30° S 21:05:36 74° WSW 21:11:57 10° NNW visible
13 Oct 4.3 22:47:24 11° WSW 22:50:34 15° W 22:54:06 10° NW visible
14 Oct 2.3 19:48:45 18° SE 19:53:01 41° ENE 19:58:49 10° N visible
14 Oct 2.7 21:33:52 28° SSW 21:36:51 46° W 21:42:54 10° NNW visible
15 Oct 1.8 20:20:19 27° SE 20:23:55 63° ENE 20:30:08 10° N visible
15 Oct 3.5 22:05:26 21° SW 22:08:14 28° W 22:13:36 10° NNW visible
16 Oct 2.9 19:06:52 10° ESE 19:11:43 24° ENE 19:16:32 10° N visible
16 Oct 1.8 20:51:53 33° S 20:54:58 83° WSW 21:01:17 10° NNW visible
16 Oct 4.1 22:36:59 13° WSW 22:39:47 17° W 22:43:48 10° NW visible
17 Oct 2.4 19:38:19 17° ESE 19:42:26 36° ENE 19:48:03 10° N visible
17 Oct 2.5 21:23:26 32° SSW 21:26:08 52° W 21:32:16 10° NNW visible
18 Oct 1.9 20:09:52 27° SE 20:13:16 56° ENE 20:19:22 10° N visible
18 Oct 3.3 21:54:58 24° SW 21:57:27 32° W 22:03:01 10° NNW visible
19 Oct 3.0 18:56:35 10° E 19:01:08 21° NE 19:05:39 10° N visible
19 Oct 1.7 20:41:24 36° SSE 20:44:15 88° ENE 20:50:32 10° NNW visible
19 Oct 4.0 22:26:30 16° WSW 22:28:56 20° W 22:33:22 10° NW visible
20 Oct 2.5 19:27:49 17° ESE 19:31:47 32° ENE 19:37:11 10° N visible
20 Oct 2.3 21:12:55 37° SSW 21:15:21 59° W 21:21:33 10° NNW visible
20 Oct 4.5 22:58:48 10° W 23:00:35 11° WNW 23:02:22 10° WNW visible
21 Oct 2.0 19:59:19 27° SE 20:02:33 50° ENE 20:08:32 10° N visible
21 Oct 3.1 21:44:26 29° SW 21:46:37 36° W 21:52:20 10° NNW visible
22 Oct 3.1 18:46:16 10° E 18:50:28 19° NE 18:54:38 10° N visible
22 Oct 1.7 20:30:49 38° SSE 20:33:28 79° ENE 20:39:42 10° N visible
22 Oct 3.8 22:15:56 19° WSW 22:18:01 22° W 22:22:47 10° NW visible
